[[{"header":{"parameterUnit":"m.s-1","parameterCategory":1,"la1":30.2991,"la2":30.254,"lo1":-89.0895,"lo2":-89.0444,"dy":0.0017,"dx":0.0017,"nx":28,"ny":28,"refTime":"2024-10-05T03:00:00:Z","depth":0,"parameterNumber":2,"parameterNumberName":"U-component_of_WINDS"},"data":[0,0,0,0,0,0,0,0,0,0,0,0,0,0,0,0,0,0,0,0,0,0,0,0,0,0,0,0,0,0,0,0,0,0,0,0,0,0,0,0,0,0,0,0,0,0,0,0,0,0,0,0,0,0,0,0,0,0,-4.6154,-4.6154,0,-4.6223,-4.6224,-4.6225,-4.6165,-4.6162,-4.616,-4.6158,-4.6228,-4.6232,-4.6236,0,0,0,0,0,0,0,0,0,0,0,0,0,-4.5968,-4.5972,-4.6153,-4.6154,-4.6155,-4.6223,-4.6224,-4.6225,-4.6165,-4.6162,-4.6159,-4.6157,-4.6227,-4.6232,-4.6237,0,0,0,0,0,0,0,0,0,0,0,0,0,-4.6044,-4.5973,-4.6153,-4.6134,-4.6133,-4.6223,-4.6224,-4.6225,-4.6166,-4.6162,-4.6159,-4.6155,-4.6225,-4.6231,-4.6237,-4.635,0,0,-4.6256,-4.6259,0,0,0,0,0,0,0,0,-4.604,-4.6051,-4.6136,-4.6135,-4.6134,-4.6182,-4.6184,-4.6267,-4.6167,-4.6153,-4.6158,-4.6153,-4.6215,-4.6222,-4.6243,-4.6353,-4.6356,-4.6257,-4.6261,-4.6263,-4.6265,0,0,0,0,0,0,0,-4.6035,-4.6048,-4.6181,-4.6137,-4.6136,-4.6121,-4.6128,-4.62,-4.6204,-4.6154,-4.615,-4.6159,-4.6214,-4.6238,-4.6245,-4.6357,-4.6257,-4.6262,-4.6266,-4.6269,-4.6565,-4.6569,0,0,0,0,0,0,-4.6032,-4.6044,-4.6179,-4.6183,-4.6077,-4.6127,-4.6135,-4.617,-4.6203,-4.6205,-4.6162,-4.6156,-4.6229,-4.6237,-4.6247,-4.6383,-4.6263,-4.6269,-4.6273,-4.6561,-4.6566,-4.657,0,0,0,0,0,0,-4.6028,-4.6044,-4.6176,-4.6112,-4.6128,-4.6135,-4.6175,-4.6173,-4.6197,-4.6209,-4.621,-4.6185,-4.6226,-4.6238,-4.6325,-4.6384,-4.6272,-4.6278,-4.6556,-4.6562,-4.6568,-4.6654,0,0,0,0,0,0,-4.6023,-4.6043,-4.6086,-4.6114,-4.6132,-4.6254,-4.6178,-4.6177,-4.6208,-4.62,-4.6231,-4.6233,-4.6224,-4.6316,-4.6332,-4.6391,-4.6283,-4.6551,-4.6559,-4.6566,-4.6646,-4.6663,-4.6677,0,0,0,0,0,-4.6016,-4.6107,-4.6089,-4.6106,-4.6186,-4.6257,-4.6267,-4.6256,-4.6213,-4.6256,-4.6264,-4.6232,-4.6375,-4.6326,-4.6342,-4.6404,-4.6547,-4.6556,-4.6565,-4.6639,-4.6659,-4.6676,0,0,0,0,0,0,-4.6086,-4.6111,-4.609,-4.6193,-4.6224,-4.6247,-4.6301,-4.6277,-4.632,-4.6312,-4.6295,-4.6303,-4.6395,-4.6408,-4.6353,-4.6516,-4.6454,-4.6467,-4.6505,-4.6524,-4.6539,-4.6534,-4.6288,0,0,0,0,0,-4.6114,-4.617,-4.6188,-4.6277,-4.6293,-4.6295,-4.6325,-4.6314,-4.6345,-4.6357,-4.6372,-4.6403,-4.6455,-4.649,-4.6538,-4.6647,-4.6654,-4.6698,-4.6713,-4.6726,-4.6738,-4.6798,-4.6818,-4.6601,-4.66,-4.66,0,0,-4.6171,-4.6191,-4.6227,-4.6291,-4.6314,-4.6373,-4.6306,-4.6371,-4.6414,-4.6367,-4.6451,-4.6463,-4.6496,-4.6596,-4.664,-4.6609,-4.6799,-4.6738,-4.6747,-4.6753,-4.681,-4.683,-4.6849,-4.6607,-4.6606,-4.6605,0,0,-4.6305,-4.6326,-4.6403,-4.6427,-4.6462,-4.6462,-4.6481,-4.6508,-4.6515,-4.6598,-4.6565,-4.6616,-4.6705,-4.6731,-4.6756,-4.6901,-4.6873,-4.6917,-4.6997,-4.7056,-4.7073,-4.7088,-4.7142,-4.7161,-4.6929,-4.6929,-4.6929,0,-4.6372,-4.6459,-4.6445,-4.6513,-4.6543,-4.6503,-4.6581,-4.6605,-4.6654,-4.6675,-4.664,-4.6752,-4.6772,-4.6877,-4.6913,-4.6933,-4.6955,-4.6914,-4.7072,-4.7087,-4.7101,-4.7152,-4.7172,-4.6934,-4.6933,-4.6933,-4.6932,0,-4.654,-4.6602,-4.6659,-4.6709,-4.6744,-4.6817,-4.6814,-4.6852,-4.6837,-4.6842,-4.6928,-4.695,-4.7003,-4.7027,-4.7013,-4.7131,-4.7111,-4.7074,-4.7012,-4.7127,-4.7175,-4.7194,-4.6942,-4.694,-4.6938,-4.6937,0,0,-4.6721,-4.6762,-4.6784,-4.6807,-4.6842,-4.6889,-4.696,-4.7013,-4.7046,-4.7081,-4.7141,-4.7218,-4.7184,-4.7212,-4.7201,-4.7252,-4.7368,-4.7209,-4.721,-4.724,-4.7501,-4.753,-4.7552,-4.7349,-4.7352,-4.7355,-4.7499,0,-4.6859,-4.6983,-4.6973,-4.709,-4.7147,-4.711,-4.7172,-4.7201,-4.7207,-4.7256,-4.7262,-4.7318,-4.7268,-4.7285,-4.7335,-4.7343,-4.742,-4.7333,-4.7405,-4.7408,-4.74,-4.7577,-4.7607,-4.7742,-4.7517,-4.752,-4.7522,0,-4.7036,-4.7078,-4.7202,-4.723,-4.7254,-4.731,-4.7357,-4.7405,-4.7436,-4.7437,-4.7469,-4.7449,-4.7521,-4.7456,-4.7555,-4.7496,-4.7524,-4.7533,-4.7538,-4.7546,-4.7473,-4.7591,-4.7784,-4.7805,-4.7551,-4.7549,-4.7547,0,-4.7158,-4.7246,-4.7331,-4.7351,-4.7386,-4.7427,-4.7443,-4.7471,-4.7503,-4.7545,-4.7566,-4.7615,-4.7642,-4.768,-4.7674,-4.7627,-4.7776,-4.771,-4.7779,-4.778,-4.7814,-4.7812,-4.8016,-4.7829,-4.7829,-4.7829,-4.7828,0,-4.7314,-4.7391,-4.7387,-4.744,-4.7526,-4.7513,-4.7598,-4.7609,-4.7635,-4.7689,-4.7659,-4.7711,-4.7699,-4.7751,-4.7746,-4.783,-4.7841,-4.7845,-4.7843,-4.7849,-4.7849,-4.7868,-4.786,-4.7834,-4.7833,-4.7832,-4.7831,0,-4.7465,-4.7465,-4.7557,-4.7582,-4.7591,-4.7653,-4.7675,-4.7725,-4.7728,-4.7798,-4.7813,-4.7819,-4.7878,-4.7875,-4.7942,-4.7938,-4.8042,-4.8028,-4.8032,-4.803,-4.81,-4.8094,-4.8326,-4.8356,-4.8148,-4.815,-4.8152,0,-4.7566,-4.7625,-4.7657,-4.7692,-4.7711,-4.7767,-4.78,-4.7789,-4.7825,-4.7866,-4.7912,-4.7968,-4.8013,-4.8109,-4.8119,-4.817,-4.8159,-4.8236,-4.8166,-4.8171,-4.8162,-4.816,-4.8166,-4.8251,-4.8253,-4.8255,-4.8256,0,-4.7744,-4.7742,-4.7791,-4.7841,-4.7882,-4.7921,-4.7956,-4.7986,-4.7979,-4.8021,-4.8081,-4.8116,-4.8185,-4.8242,-4.8291,-4.8307,-4.8282,-4.8278,-4.8297,-4.8305,-4.8305,-4.8308,-4.8071,-4.8273,-4.8272,-4.827,-4.827,-4.8269,-4.7875,-4.7926,-4.7957,-4.8014,-4.8039,-4.8073,-4.8122,-4.8132,-4.8182,-4.8238,-4.8227,-4.8296,-4.8327,-4.839,-4.8411,-4.8464,-4.8437,-4.8464,-4.8471,-4.8479,-4.8488,-4.8295,-4.8473,-4.8472,-4.8472,-4.8472,-4.8471,0,-4.8053,-4.8072,-4.8124,-4.8175,-4.8219,-4.8191,-4.8228,-4.8268,-4.8328,-4.8359,-4.8404,-4.8475,-4.853,-4.8544,-4.8597,-4.8637,-4.8627,-4.8652,-4.865,-4.8654,-4.8508,-4.8487,-4.8659,-4.8659,-4.8659,-4.8659,-4.8659,-4.8659,-4.8152,-4.8238,-4.8239,-4.8337,-4.8354,-4.8422,-4.8446,-4.8477,-4.8502,-4.8582,-4.8628,-4.8637,-4.8662,-4.8716,-4.8766,-4.8769,-4.8791,-4.8821,-4.8819,-4.8683,-4.8664,-4.8646,-4.8627,-4.8825,-4.8825,-4.8961,-4.8962,-4.8963]},{"header":{"parameterUnit":"m.s-1","parameterCategory":1,"la1":30.2991,"la2":30.254,"lo1":-89.0895,"lo2":-89.0444,"dy":0.0017,"dx":0.0017,"nx":28,"ny":28,"refTime":"2024-10-05T03:00:00:Z","depth":0,"parameterNumber":3,"parameterNumberName":"V-component_of_WINDS"},"data":[0,0,0,0,0,0,0,0,0,0,0,0,0,0,0,0,0,0,0,0,0,0,0,0,0,0,0,0,0,0,0,0,0,0,0,0,0,0,0,0,0,0,0,0,0,0,0,0,0,0,0,0,0,0,0,0,0,0,-4.1585,-4.1585,0,-4.1549,-4.1549,-4.1549,-4.1469,-4.1468,-4.1466,-4.1465,-4.143,-4.1431,-4.1431,0,0,0,0,0,0,0,0,0,0,0,0,0,-4.1586,-4.1586,-4.1585,-4.1585,-4.1584,-4.1549,-4.1549,-4.1549,-4.147,-4.1468,-4.1466,-4.1464,-4.143,-4.1431,-4.1431,0,0,0,0,0,0,0,0,0,0,0,0,0,-4.1572,-4.1587,-4.1585,-4.1541,-4.1536,-4.155,-4.1549,-4.1548,-4.147,-4.1468,-4.1465,-4.1463,-4.143,-4.1431,-4.1431,-4.1486,0,0,-4.1434,-4.1435,0,0,0,0,0,0,0,0,-4.1573,-4.1572,-4.1548,-4.1544,-4.1539,-4.1511,-4.1537,-4.1528,-4.1471,-4.1495,-4.1465,-4.1462,-4.1459,-4.1458,-4.1456,-4.1484,-4.1483,-4.1434,-4.1435,-4.1435,-4.1435,0,0,0,0,0,0,0,-4.1574,-4.1573,-4.1571,-4.1547,-4.1542,-4.1523,-4.1518,-4.1535,-4.1491,-4.1493,-4.1487,-4.1484,-4.1456,-4.1456,-4.1455,-4.1482,-4.1434,-4.1435,-4.1436,-4.1436,-4.1553,-4.1555,0,0,0,0,0,0,-4.1581,-4.1574,-4.1572,-4.157,-4.155,-4.1525,-4.1519,-4.1523,-4.1491,-4.1484,-4.1486,-4.148,-4.1455,-4.1454,-4.1453,-4.1515,-4.1435,-4.1436,-4.1437,-4.155,-4.1553,-4.1556,0,0,0,0,0,0,-4.1581,-4.1582,-4.1573,-4.157,-4.1568,-4.1527,-4.1532,-4.1523,-4.1522,-4.1486,-4.1478,-4.1493,-4.1453,-4.1452,-4.1478,-4.1512,-4.1436,-4.1437,-4.1547,-4.1551,-4.1555,-4.1638,0,0,0,0,0,0,-4.1582,-4.1582,-4.1602,-4.1571,-4.1568,-4.1599,-4.1534,-4.1524,-4.1524,-4.1516,-4.149,-4.1484,-4.1451,-4.1477,-4.1479,-4.1512,-4.1438,-4.1544,-4.1549,-4.1553,-4.1632,-4.1644,-4.1655,0,0,0,0,0,-4.1582,-4.1627,-4.1603,-4.1604,-4.1592,-4.1601,-4.1599,-4.156,-4.1527,-4.1547,-4.1523,-4.1484,-4.1508,-4.1481,-4.1482,-4.1516,-4.1542,-4.1548,-4.1553,-4.1627,-4.1642,-4.1655,0,0,0,0,0,0,-4.1664,-4.1623,-4.1596,-4.1632,-4.1621,-4.1587,-4.1611,-4.1578,-4.1575,-4.1568,-4.1521,-4.1516,-4.1548,-4.1535,-4.1504,-4.1567,-4.1519,-4.1525,-4.1575,-4.1588,-4.16,-4.1602,-4.1439,0,0,0,0,0,-4.1686,-4.1696,-4.1659,-4.1696,-4.1691,-4.1653,-4.1655,-4.1626,-4.1612,-4.1607,-4.1585,-4.1574,-4.1578,-4.1583,-4.1585,-4.163,-4.1623,-4.1654,-4.1665,-4.1675,-4.1681,-4.1703,-4.1716,-4.1575,-4.1575,-4.1575,0,0,-4.1733,-4.1711,-4.172,-4.1712,-4.1699,-4.1711,-4.1649,-4.1664,-4.1672,-4.1609,-4.1632,-4.1616,-4.16,-4.1636,-4.165,-4.1625,-4.1718,-4.1682,-4.169,-4.1691,-4.1711,-4.1724,-4.1736,-4.1579,-4.1578,-4.1578,0,0,-4.1823,-4.1808,-4.1836,-4.1824,-4.1806,-4.178,-4.1787,-4.1758,-4.1745,-4.1767,-4.172,-4.173,-4.1739,-4.1729,-4.1726,-4.1812,-4.1776,-4.1814,-4.1874,-4.1896,-4.1907,-4.1917,-4.1948,-4.1959,-4.1821,-4.1821,-4.1821,0,-4.1883,-4.1898,-4.1855,-4.1872,-4.187,-4.1813,-4.1841,-4.1832,-4.1816,-4.1816,-4.1788,-4.1798,-4.1784,-4.1816,-4.1837,-4.1836,-4.1843,-4.1817,-4.1909,-4.1918,-4.1927,-4.1955,-4.1967,-4.1825,-4.1825,-4.1824,-4.1824,0,-4.1972,-4.1984,-4.2009,-4.1993,-4.1994,-4.2017,-4.1978,-4.1984,-4.1955,-4.1932,-4.1955,-4.1936,-4.1933,-4.1938,-4.1911,-4.1967,-4.1952,-4.1918,-4.1868,-4.1946,-4.1972,-4.1983,-4.1832,-4.1831,-4.1829,-4.1828,0,0,-4.2114,-4.2074,-4.2084,-4.2076,-4.2051,-4.2059,-4.208,-4.2077,-4.2082,-4.2073,-4.2089,-4.2099,-4.2066,-4.2062,-4.2033,-4.2053,-4.2122,-4.2015,-4.2014,-4.2036,-4.2183,-4.2209,-4.2223,-4.2098,-4.21,-4.2102,-4.2184,0,-4.2198,-4.223,-4.2192,-4.2233,-4.2242,-4.2188,-4.2206,-4.2193,-4.2173,-4.2178,-4.2155,-4.2162,-4.2119,-4.2116,-4.2133,-4.211,-4.2151,-4.2104,-4.2113,-4.2114,-4.2119,-4.2236,-4.2264,-4.2343,-4.2194,-4.2196,-4.2197,0,-4.2301,-4.2295,-4.2337,-4.2309,-4.2312,-4.2329,-4.2322,-4.2328,-4.2313,-4.2296,-4.2292,-4.2256,-4.2275,-4.2227,-4.2252,-4.2221,-4.2222,-4.2211,-4.2214,-4.2213,-4.216,-4.2239,-4.2367,-4.2379,-4.2213,-4.2212,-4.221,0,-4.2399,-4.2403,-4.2428,-4.2423,-4.2391,-4.2404,-4.2392,-4.2374,-4.2374,-4.2369,-4.2368,-4.2366,-4.2365,-4.2364,-4.2328,-4.2297,-4.2358,-4.2307,-4.2345,-4.2346,-4.236,-4.236,-4.2491,-4.2362,-4.2362,-4.2361,-4.2361,0,-4.2497,-4.2525,-4.2471,-4.2487,-4.2516,-4.2472,-4.2503,-4.2485,-4.2469,-4.248,-4.2434,-4.2446,-4.2398,-4.2405,-4.2378,-4.2403,-4.2403,-4.239,-4.2383,-4.2394,-4.2396,-4.2395,-4.2388,-4.2365,-4.2364,-4.2363,-4.2363,0,-4.2613,-4.2578,-4.2602,-4.257,-4.2562,-4.2585,-4.2558,-4.2571,-4.2547,-4.2562,-4.2563,-4.2526,-4.2531,-4.2496,-4.2495,-4.2477,-4.2515,-4.2498,-4.2521,-4.2515,-4.2555,-4.2552,-4.269,-4.2705,-4.2567,-4.2568,-4.2569,0,-4.2678,-4.2697,-4.2667,-4.2671,-4.2661,-4.2668,-4.2668,-4.2625,-4.2627,-4.2611,-4.2626,-4.2628,-4.2627,-4.2638,-4.2611,-4.2611,-4.2593,-4.2642,-4.2593,-4.2604,-4.2594,-4.2593,-4.2595,-4.2652,-4.2654,-4.2655,-4.2656,0,-4.2797,-4.2778,-4.2779,-4.2775,-4.2776,-4.277,-4.2762,-4.2768,-4.2722,-4.2727,-4.2731,-4.2731,-4.2729,-4.2732,-4.2726,-4.2713,-4.2677,-4.2672,-4.268,-4.2693,-4.2704,-4.2698,-4.2548,-4.2669,-4.2667,-4.2667,-4.2666,-4.2665,-4.2888,-4.2903,-4.2884,-4.2887,-4.2876,-4.2869,-4.288,-4.2857,-4.286,-4.2855,-4.283,-4.284,-4.2823,-4.2811,-4.2802,-4.2809,-4.2786,-4.2799,-4.2802,-4.2806,-4.2813,-4.2703,-4.2808,-4.2807,-4.2807,-4.2807,-4.2806,0,-4.3005,-4.299,-4.2993,-4.2982,-4.2984,-4.295,-4.2938,-4.2943,-4.2952,-4.2939,-4.2939,-4.2944,-4.2946,-4.2919,-4.2918,-4.2929,-4.2912,-4.293,-4.2929,-4.2926,-4.2833,-4.2826,-4.2943,-4.2943,-4.2943,-4.2943,-4.2943,-4.2943,-4.3066,-4.3089,-4.3068,-4.3086,-4.3071,-4.3079,-4.3075,-4.3069,-4.3058,-4.3067,-4.3068,-4.305,-4.3032,-4.3028,-4.3029,-4.3021,-4.3022,-4.3046,-4.3032,-4.2946,-4.2933,-4.292,-4.2913,-4.3046,-4.3046,-4.3124,-4.3125,-4.3125]}]]